Home > Weather > Churchill > Past weeks

Flag for Canada Weather for the Past 2 Weeks in Churchill, Manitoba, Canada

Now
-20 °F

Snow flurries. Ice fog.


Feels Like: -53 °F
Forecast: -27 / -22 °F
Wind: 30 mph from North

Location: Churchill

Current Time: Feb 11, 2016 at 3:18:51 AM

Latest Report: Feb 11, 2016 at 2:00 AM


Visibility: 1 mi

Pressure: 30.11 "Hg

Humidity: 68%

Dew point: -27 °F

Location of ChurchillLocation

Historic Weather in Churchill — Graph

°F

Churchill Temperature Yesterday

Maximum temperature yesterday: -17 °F (at 12:00 PM)
Minimum temperature yesterday: -29 °F (at 12:00 AM)
Average temperature yesterday: -23 °F

High & Low Weather Summary for the Past Weeks

 TemperatureHumidityPressure
High9 °F (Jan 29, 5:00 PM)92% (Jan 29, 7:00 PM)30.48 "Hg (Jan 29, 7:00 PM)
Low-42 °F (Feb 6, 8:00 AM)59% (Feb 5, 4:00 AM)29.22 "Hg (Jan 29, 9:00 PM)
Average-19 °F73%30.02 "Hg
* Reported Jan 27 2:00 AM — Feb 11 2:00 AM, Churchill, Weather by CustomWeather, © 2016

Note: Actual official high and low records may vary slightly from our data, if they occured in-between our weather recording intervals... More about our weather records

Advertising

Churchill Weather History for the Previous 24 Hours

 ConditionsComfort  
Time TempWeatherWind HumidityBarometerVisibility
2:00 AM
Thu, Feb 11
-20 °FSnow flurries. Ice fog.30 mph68%30.11 "Hg1 mi
1:00 AM-20 °FSnow flurries. Ice fog.25 mph68%30.11 "Hg2 mi
12:00 AM-22 °FSnow flurries. Passing clouds.22 mph68%30.12 "Hg5 mi
11:00 PM
Wed, Feb 10
-22 °FSnow flurries. Low level haze.21 mph68%30.14 "Hg8 mi
10:00 PM-24 °FSnow flurries. Low level haze.16 mph68%30.16 "Hg10 mi
9:00 PM-22 °FSnow flurries. Low level haze.20 mph68%30.18 "Hg10 mi
8:00 PM-22 °FSnow flurries. Passing clouds.18 mph68%30.20 "Hg8 mi
7:00 PM-22 °FSnow flurries. Low level haze.23 mph68%30.23 "Hg8 mi
6:00 PM-22 °FSnow flurries. Clear.21 mph68%30.24 "Hg10 mi
5:00 PM-22 °FSnow flurries. Clear.21 mph75%30.25 "Hg5 mi
4:00 PM-22 °FSnow flurries. Sunny.22 mph75%30.26 "Hg4 mi
3:00 PM-20 °FSnow flurries. Sunny.23 mph68%30.25 "Hg2 mi
2:00 PM-20 °FSnow flurries. Low level haze.20 mph75%30.25 "Hg2 mi
1:00 PM-18 °FSnow flurries. Low level haze.20 mph75%30.26 "Hg2 mi
12:00 PM-17 °FSnow flurries. Scattered clouds.21 mph69%30.26 "Hg2 mi
11:00 AM-18 °FSnow flurries. Scattered clouds.12 mph75%30.26 "Hg6 mi
10:00 AM-18 °FSnow flurries. Scattered clouds.12 mph75%30.27 "Hg3 mi
9:53 AM-18 °FSnow flurries. Ice fog.9 mph75%30.27 "Hg2 mi
9:00 AM-22 °FSnow flurries. Partly sunny.9 mph75%30.27 "Hg6 mi
8:00 AM-26 °FSnow flurries. Partly cloudy.8 mph75%30.28 "Hg5 mi
7:00 AM-27 °FSnow flurries. Passing clouds.12 mph74%30.29 "Hg4 mi
6:00 AM-27 °FSnow flurries. Low clouds.10 mph74%30.30 "Hg3 mi
5:00 AM-29 °FSnow flurries. Mostly cloudy.12 mph67%30.29 "Hg5 mi
4:00 AM-29 °FSnow flurries. Passing clouds.12 mph74%30.30 "Hg5 mi
3:00 AM-29 °FSnow flurries. Passing clouds.10 mph67%30.30 "Hg10 mi
Weather by CustomWeather, © 2016

See weather overviewHow to use our weather pages